Regional Weather Roundup
Issued by NWS Grand Forks, ND

Home | Current Version | Previous Version | Graphics & Text | Print | Product List | Glossary On
Versions: 1 2 3 4 5 6 7 8 9 10 11 12 13 14 15 16 17 18 19 20 21 22 23 24 25 26 27 28 29 30 31 32 33 34 35 36 37 38 39 40 41 42 43 44 45 46 47 48 49 50
055
ASUS43 KFGF 161331
RWRFGF
PRAIRIE TO PINES  WEATHER ROUNDUP
NATIONAL WEATHER SERVICE EASTERN NORTH DAKOTA/GRAND FORKS ND
800 AM CDT WED AUG 16 2017

 **SATELLITE DATA USED TO AUGMENT SKY COVER AT AUTOMATED STATIONS**
 *****  WEATHER ACROSS EASTERN NORTH DAKOTA  *****

CITY           SKY/WX    TMP DP  RH WIND       PRES   REMARKS
GRAND FORKS    HVY RAIN  64  64 100 E7        29.85F FOG
GRAND FRKS AFB LGT RAIN  63  63 100 E7        29.86S
DEVILS LAKE    CLOUDY    62  61  96 NE9       29.88R
FARGO          CLOUDY    64  64 100 SE8       29.84S
WAHPETON ARPT  CLOUDY    63  61  94 SE7       29.84F
$$

 ***** WEATHER ACROSS CENTRAL AND WESTERN NORTH DAKOTA  *****

CITY           SKY/WX    TMP DP  RH WIND       PRES   REMARKS
BISMARCK       CLOUDY    61  59  93 N12       29.91R
MINOT          FOG       60  59  96 W5        29.92R VSB<1/4
JAMESTOWN      FOG       64  63  96 E5        29.83R VSB 1
MINOT AFB      FOG       55  55 100 NW7       29.91R VSB 3/4
GARRISON         N/A     57  57 100 NW7       29.92R
WILLISTON      CLOUDY    56  55  97 CALM      29.95S
DICKINSON      FOG       54  54 100 NW8       29.94S VSB<1/4
HETTINGER      FAIR      55  54  96 NW3       29.98R
$$

 *****  OTHER AIRPORT OBSERVATIONS IN OUR AREA  *****

CITY           SKY/WX    TMP DP  RH WIND       PRES   REMARKS
WALHALLA       FAIR      61  61 100 CALM      29.89F
GRAFTON AIRPOR CLOUDY    63  63 100 E7        29.89S FOG
VALLEY CITY AR   N/A     63  63 100 SE6       29.85S FOG
CANDO          PTSUNNY   61  61 100 NE7       29.91F
CAVALIER APRT  PTSUNNY   63  61  94 CALM      29.89S
GWINNER        PTSUNNY   64  64 100 CALM      29.82F
SHEYENNE NWR     N/A     64  64 100 SE5       29.95S
ROLLA          CLOUDY    61  61 100 NW3       29.92S
 ***** THE ABOVE OBSERVATIONS ARE NON NWS ARE NOT QUALITY
       CONTROLLED AND MAY MIS-REPORT RAIN FOR SNOW...
$$

  *****  WEATHER ACROSS NORTHERN MINNESOTA  *****

CITY           SKY/WX    TMP DP  RH WIND       PRES   REMARKS
FLAG ISLAND    CLOUDY    68  63  83 CALM      29.93F
WARROAD        FAIR      64  61  88 SE6       29.94S
ROSEAU         LGT RAIN  64  59  82 CALM      29.93R
HALLOCK        DRIZZLE   63  61  94 E6        29.89F
THF RVR FALLS  LGT RAIN  62  60  93 SE8       29.89F
BAUDETTE       CLOUDY    61  59  93 SE9       29.94S
WASKISH        CLOUDY    61  57  88 E5        29.94F
CROOKSTON      RAIN      63  61  94 E5        29.87S
STEPHEN NDAWN    N/A     63  63 100 NE3         N/A
GREENBUSH NDAW   N/A    N/A N/A N/A E3          N/A
$$
  *****  WEATHER ACROSS CENTRAL AND WEST MINNESOTA  *****

CITY           SKY/WX    TMP DP  RH WIND       PRES   REMARKS
FOSSTON        PTSUNNY   63  61  94 E8        29.88F
BEMIDJI        PTSUNNY   63  58  86 E9        29.92S
PARK RAPIDS    LGT RAIN  63  60  90 SE8       29.90F FOG
ELBOW LAKE     CLOUDY    64  64  99 E9        29.86S FOG
WADENA         CLOUDY    61  61 100 SE9       29.89F FOG
DETROIT LAKES  CLOUDY    63  61  94 SE12      29.88F FOG
MOORHEAD       CLOUDY    64  63  94 SE7       29.85S
FERGUS FALLS   CLOUDY    64  64 100 SE7       29.86S
MORRIS MN      CLOUDY    64  64 100 SE7       29.85S FOG
STAPLES        DRIZZLE   61  59  94 E6        29.91S
$$
  *****  WEATHER ELSEWHERE ACROSS MINNESOTA  *****

CITY           SKY/WX    TMP DP  RH WIND       PRES   REMARKS
DULUTH         FAIR      58  56  93 E12       30.00F
INTRNTL FALLS  FAIR      60  51  72 SE6       29.98F
ELY            FAIR      59  48  67 SE3       30.03S
CLOQUET        FAIR      61  55  82 E8        29.98F
WHEATON        CLOUDY    64  63  94 SE7       29.86S FOG
BRAINERD       CLOUDY    62  60  93 SE8       29.92S
HIBBING        FAIR      57  51  80 E5        29.99F
ALEXANDRIA     CLOUDY    64  64 100 SE10      29.89F FOG
SAINT CLOUD    CLOUDY    63  63 100 SE7       29.91S
MINNEAPOLIS    CLOUDY    66  63  90 SE13      29.92S
$$

  *****  WEATHER ACROSS SOUTH DAKOTA  *****

CITY           SKY/WX    TMP DP  RH WIND       PRES   REMARKS
SIOUX FALLS    LGT RAIN  66  66 100 E5        29.84S FOG
BROOKINGS      CLOUDY    65  64  97 N3        29.84F
WATERTOWN      CLOUDY    66  65  96 CALM      29.84S
HURON          LGT RAIN  66  65  96 W3        29.83R
SISSETON         N/A     65  65 100 SE6       29.83S
ABERDEEN       CLOUDY    66  65  96 CALM      29.81F FOG
MITCHELL       LGT RAIN  66  65  96 NE6       29.82R FOG
PIERRE         CLOUDY    64  62  93 N14       29.85R
MOBRIDGE       CLOUDY    64  60  87 N13G21    29.87R
RAPID CITY     CLOUDY    60  55  83 N12       29.97R
$$

  *****  SOME WEATHER IN NEARBY STATES *****

CITY           SKY/WX    TMP DP  RH WIND       PRES   REMARKS
GLASGOW MT     FAIR      55  45  68 E9        29.93R
GREAT FALLS MT FAIR      48  28  46 SW8       29.98R
CHEYENNE WY    FAIR      52  45  77 NW9       30.11R
SCOTTSBLUFF NE FAIR      58  55  90 NW8       30.01R
OMAHA NE       CLOUDY    74  69  85 SE9       29.78R
DES MOINES IA  CLOUDY    71  69  93 E10       29.84S
DAVENPORT IA   FAIR      68  65  90 E10       29.97F FOG
CHICAGO IL     FAIR      73  66  78 E9        30.01S
EAU CLAIRE WI  PTSUNNY   63  60  90 SE6       29.97S
LA CROSSE WI   CLOUDY    69  60  73 SE9       29.96F
$$

  *****  SOME NATIONAL WEATHER *****

CITY           SKY/WX    TMP DP  RH WIND       PRES   REMARKS
LA GUARDIA NY  FAIR      75  66  73 N7        29.95S
RALEIGH NC     FAIR      79  75  87 NE5       30.03R
ATLANTA GA     PTSUNNY   78  72  81 W7        30.10R
NEW ORLEANS LA PTSUNNY   81  78  91 SE5       30.06R
OKLAHOMA CITY  PTSUNNY   75  71  87 S13       29.85R
ALBUQUERQUE NM FAIR      63  40  42 VRB3      30.14R
SALT LAKE CITY FAIR      61  39  44 SE9       30.04R
LOS ANGELES CA CLOUDY    67  60  78 S6        29.95R
BOISE ID       FAIR      60  37  42 S6        29.97R
SEATTLE WA     FAIR      59  48  67 CALM      30.09R
$$

*** WEATHER ACROSS MANITOBA...SASKATCHEWAN AND ONTARIO ***
                ***ONTARIO***

CITY           SKY/WX    TMP DP  RH WIND       PRES   REMARKS
GERALDTON      PTSUNNY   52  48  87 SW3       30.11R
THUNDER BAY    PTSUNNY   52  52 100 VRB2      30.09S
SIOUX LOOKOUT  CLOUDY    63  50  63 S7        30.01R
TORONTO        PTSUNNY   68  61  77 VRB2      30.09R
BIG TROUT LK   SUNNY     63  55  77 SW3       29.98R
PICKLE LAKE    PTSUNNY   59  55  88 SE7       30.01S
DRYDEN         CLOUDY    63  54  72 S9        30.00R
KENORA         LGT RAIN  64  63  94 SE3       29.97R
$$
                *** MANITOBA***

CITY           SKY/WX    TMP DP  RH WIND       PRES   REMARKS
BRANDON        PTSUNNY   59  59 100 W5        29.90S
DAUPHIN        PTSUNNY   61  59  94 W7        29.88R
ISLAND LAKE    CLOUDY    64  59  82 S6        29.91R
PILOT MOUND      N/A     59  59 100 E5          N/A
THE PAS        MOSUNNY   57  55  94 SE7       29.80R
THOMPSON       PTSUNNY   61  55  82 E2        29.81S SMOKE
WINNIPEG       LGT RAIN  61  61 100 E5        29.92S
LYNN LAKE      PTSUNNY   63  57  82 MISG      29.73F
CHURCHILL      SUNNY     61  55  82 SW6       29.81R
GILLAM         CLOUDY    57  54  88 S3        29.86F
$$
                ***SASKATCHEWAN***

CITY           SKY/WX    TMP DP  RH WIND       PRES   REMARKS
ESTEVAN        MOSUNNY   50  50 100 W3        29.94S FOG
KINDERSLEY     MOCLDY    50  46  87 S3        29.92R
LLOYDMINSTER   PTCLDY    48  45  87 W8        29.87R
PRINCE ALBERT  PTCLDY    54  48  82 SW7       29.84R
REGINA         PTCLDY    50  46  87 S6        29.93S
YORKTON        MOSUNNY   55  50  82 SW7       29.90S
N. BATTLEFORD  CLEAR     48  45  87 W2        29.90R
LA RONGE       CLOUDY    59  55  88 SW9       29.70R
SASKATOON      PTCLDY    48  46  93 SW7       29.90R
SWIFT CURRENT  CLOUDY    52  43  71 SW8       29.95R
$$
NOTE: THESE ARE AUTOMATED STATIONS WITH LIMITED QUALITY CONTROL
      "FAIR" INDICATES FEW OR NO CLOUDS BELOW 12,000 FEET WITH NO
      SIGNIFICANT WEATHER AND/OR OBSTRUCTIONS TO VISIBILITY.
      SKY/WX - SKY CONDITION AND SIGNIFICANT WEATHER.
      TMP - AIR TEMPERATURE.    DP   - DEWPOINT TEMPERATURE.
      RH  - RELATIVE HUMIDITY.  PRES - PRESSURE.
      HX  - HEAT INDEX.         WCI  - WIND CHILL INDEX.
$




USA.gov is the U.S. government's official web portal to all federal, state and local government web resources and services.